小惑星A/2019 U5

A/2019 U5

English version
Home page
Updated on January 7, 2020

---------------------------------------------------------------------

・ プロフィール

発見日 2019年10月22日
発見光度 21.16等
発見者 Pan-STARRS 1 telescope (Haleakala)

・ 軌道要素

Epoch 2023 Apr. 6.0 TT = JDT 2460040.5
T 2023 Mar. 29.70774 TT                                 Williams
q   3.6230280            (2000.0)            P               Q
z  -0.0005440      Peri.  181.50933     -0.99906215     +0.00777234
 +/-0.0003597      Node     2.66280     -0.02336682     +0.73142957
e   1.0019710      Incl.  113.52729     -0.03645290     -0.68187270
H   10.0
From 43 observations 2019 Oct. 11-Nov. 24, mean residual 0".2.

・ 星図

・ 光度変化

        H = 10.0  G = 0.15

---------------------------------------------------------------------

軌道要素はM.P.E.C. 2019-X94に掲載されたものです。
星図はステラナビゲータ Ver.10 (アストロアーツ) で作成したものです。
光度グラフはComet for Windowsで作成したものです。

---------------------------------------------------------------------

Copyright(C) Seiichi Yoshida (comet@aerith.net). All rights reserved.